Showing default

COSMOS 1988 (GLONASS), 19750

Orbit data source: Space-Track

COSMOS 1988 (GLONASS), 19750 is a payload satellite owned by UNKS (CIS) in MEO that was launched on Tue, 10 Jan 1989 UTC via a PROTON-K/DM-2 launch vehicle from the Tyuratam Missile And Space Complex (TTMTR). Payload-class satellites include a variety of spacecraft equipped with specific instruments for various scientific and technological missions. These include communications satellites like Starlink; space stations such as the ISS; scientific satellites like the Hubble; Earth observation satellites from companies like Planet Labs, Umbra, and HawkEye 360; GPS; miniature CubeSats for education and research; and military/defense satellites.

Loading next visibility...
Identifier
19750, 1989-001B
Orbit
MEO
Country
Flag of CISCIS
Related business
Manufacturer
Omsk Av. Zav.
Mission
Non-operational Defense Navigation
Bus & Motor
URAGAN, Unknown motor
Mass
1,300 kg wet, ~1,200 kg dry
Launch date (UTC)
1989-01-10 (37 years ago)
Launch vehicle
PROTON-K/DM-2
Launch site
Tyuratam Missile And Space Complex (TTMTR)
Object type
Payload
Rocket body
Debris
Shape & HBR
Cyl + 2 Pan, 4.2 m
Radar Cross Section
14.707 m², Large (>1 m²)

Expand to show TLE details & history
Last TLE update: 3 days ago

TLE from 3 days ago
0 COSMOS 1988 (GLONASS)
1 19750U 89001B   25348.12262918 -.00000054  00000-0  00000-0 0  9993
2 19750  64.8380  78.9616 0015602 220.4660 138.9526  2.13101692287336
Epoch: 2025-12-14T02:56Z
TLE epoch observation values (Epoch: 2025-12-14T02:56:35.161Z)
Latitude
-0.4332°
Longitude
-48.42362°
Altitude
19,160.625 km
Speed
3.948 km/s
True Right ascension
05h 15m 03s
True Declination
0° 25' 57"
Sunlit
Object was in daylight at epoch
Visualization orbit readout
Latitude
Unknown
Longitude
Unknown
Altitude
Unknown
Speed
Unknown
Apparent Right ascension
Unknown
Apparent Declination
Unknown
Sunlit
N/A
Visualization observer readout
Local Sidereal Time
02:42:43
Azimuth
Unknown
Elevation
Unknown
Doppler factor
Unknown
Orbital elements
Apogee altitude
19,169.33 km
Perigee altitude
19,089.735 km
Semi-major axis
25,507.67 km
Eccentricity
0.00156
Inclination
64.838°
RAAN
78.9616°
Arg. of periapsis
220.466°
True anomaly
139.06983°
Mean anomaly
138.9526°
Eccentric anomaly
139.01123°
Mean motion
0.53277 °/min
Orbital period
675.72 mins
BSTAR
0
Loading maneuver chart data...
Computing Atmospheric mass density...
Loading historical data...
Loading historical data...
Loading historical data...
Loading historical data...
Loading historical data...
Loading historical data...
Loading historical data...

Documentation

Showing up to 5 results
|